Hourly Data Report for September 24, 2017

All times are specified in Local Standard Time (LST). Add 1 hour to adjust for Daylight Saving Time where and when it is observed.

GJOA HAVEN A
NUNAVUT

68°38'08.000" N
95°51'01.000" W
46.90 m
2302337
71597
YHK

Download Data

Hourly Data (September 2017)
Hourly Data Report for September 24, 2017
Temp Definition
°C
Dew Point Temp Definition
°C
Rel Hum Definition
%
Wind Dir Definition
10's deg

Wind Spd Definition
km/h
Visibility Definition
km
Stn Press Definition
kPa
Hmdx Definition


Wind Chill Definition


Weather Definition


TIME
00:00 Legend Double Dagger -4.1 -4.5 97 33 9 16.1 101.76   -8 LegendNANA
01:00 Legend Double Dagger -3.0 -4.3 91 32 15 16.1 101.73   -8 LegendNANA
02:00 Legend Double Dagger -2.4 -4.3 87 35 17 16.1 101.74   -8 LegendNANA
03:00 Legend Double Dagger -2.3 -4.2 87 36 18 16.1 101.74   -8 LegendNANA
04:00 Legend Double Dagger -2.0 -4.4 84 36 13 16.1 101.75   -6 LegendNANA
05:00 Legend Double Dagger -2.3 -4.5 85 35 17 16.1 101.75   -8 LegendNANA
06:00 Legend Double Dagger -2.4 -5.2 81 2 17 16.1 101.73   -8 LegendNANA
07:00 Legend Double Dagger -2.3 -4.9 83 34 17 16.1 101.71   -8 LegendNANA
08:00 Legend Double Dagger -2.2 -4.6 84 34 17 16.1 101.71   -8 LegendNANA
09:00 Legend Double Dagger -2.2 -4.8 82 34 17 16.1 101.70   -8 LegendNANA
10:00 Legend Double Dagger -1.7 -4.5 81 33 11 16.1 101.68   -6 LegendNANA
11:00 Legend Double Dagger -1.4 -4.4 80 32 11 16.1 101.68   -5 LegendNANA
12:00 Legend Double Dagger -1.4 -4.7 78 32 9 16.1 101.68   -5 LegendNANA
13:00 Legend Double Dagger -1.0 -4.8 75 36 8 16.1 101.66   -4 LegendNANA
14:00 Legend Double Dagger -0.7 -4.5 76 34 11 16.1 101.66   -4 LegendNANA
15:00 Legend Double Dagger -0.8 -4.2 78 1 15 16.1 101.61   -5 LegendNANA
16:00 Legend Double Dagger -0.9 -4.3 78 1 8 16.1 101.59   -4 LegendNANA
17:00 Legend Double Dagger -1.0 -4.5 77 36 8 16.1 101.57   -4 LegendNANA
18:00 Legend Double Dagger -1.1 -4.3 79 LegendMM 4 16.1 101.54   -2 LegendNANA
19:00 Legend Double Dagger -1.1 -4.8 76 30 8 16.1 101.52   -4 LegendNANA
20:00 Legend Double Dagger -1.3 -4.5 79 28 5 16.1 101.48   -3 LegendNANA
21:00 Legend Double Dagger -1.5 -4.4 80 27 13 16.1 101.45   -6 LegendNANA
22:00 Legend Double Dagger -1.7 -4.5 81 28 11 16.1 101.43   -6 LegendNANA
23:00 Legend Double Dagger -1.8 -4.2 84 27 11 16.1 101.42   -6 LegendNANA

Notes on Data Quality.

Legend

  • E = Estimated
  • M = Missing
  • NA = Not Available
  • ‡ = Partner data that is not subject to review by the National Climate Archives
Date modified: